Wind_Speed
39 38 49 45 39 46 45 54 49 49 41 47 43 37 25 12 24 26 37 38 38 22 49 42 41 33 22 20 23 23 25 29 27 28 26 29 30 28 26 26 25 24 25 25
30 31 49 50 45 46 37 45 55 51 46 37 34 32 47 39 31 36 35 33 32 30 34 41 42 40 28 23 25 22 20 28 27 29 31 31 31 29 29 28 29 28 28 29
13 25 42 37 60 46 46 43 43 46 45 36 36 33 28 29 25 26 41 32 37 36 27 28 39 41 34 29 26 24 22 25 30 30 33 33 33 32 32 30 29 28 29 29
17 12 20 37 42 51 40 34 29 27 44 38 33 31 27 37 32 23 31 33 37 38 39 38 33 37 34 29 31 28 25 28 29 31 33 35 36 35 34 32 31 31 31 28
9 14 17 33 21 43 41 44 40 36 28 33 40 29 32 29 31 42 28 34 39 33 33 30 33 36 34 32 29 27 25 27 34 33 35 36 38 38 36 35 34 31 29 25
23 6 9 24 19 29 21 17 33 32 30 29 20 31 35 30 29 32 38 36 32 30 38 35 33 33 36 37 35 34 32 27 30 36 32 37 38 38 37 37 33 30 24 25
34 17 12 16 28 24 21 19 19 22 22 24 26 23 25 27 29 29 29 34 41 40 41 45 47 39 42 40 39 34 30 29 29 33 34 32 38 39 39 36 29 27 25 24
16 15 8 10 25 31 29 15 16 18 18 21 23 26 27 26 28 27 26 30 30 31 38 43 48 46 46 52 43 38 38 31 31 31 34 37 36 39 35 32 31 28 25 31
17 6 11 4 17 22 27 27 25 26 17 13 18 20 21 25 27 30 33 27 29 35 37 40 40 53 54 45 43 42 40 37 34 31 36 42 41 37 34 31 29 26 29 25
26 18 9 3 15 21 22 21 20 22 25 21 13 18 20 26 27 29 31 33 32 25 30 38 42 46 52 44 40 42 39 34 34 37 39 45 42 39 35 32 27 30 26 23
24 24 11 4 10 13 12 18 16 19 22 16 13 17 19 20 21 24 26 26 27 35 37 30 35 52 56 51 46 43 39 31 31 32 37 43 43 39 35 29 23 24 23 24
16 20 6 4 6 10 15 20 24 19 21 16 12 15 17 19 14 16 20 25 31 37 38 42 39 44 53 52 46 46 42 43 40 36 38 39 32 28 27 27 22 24 25 27
15 7 10 8 6 12 8 12 23 25 27 29 23 20 23 23 19 27 29 32 35 39 43 49 47 30 45 35 32 36 35 35 32 28 31 29 27 19 27 23 23 23 23 23
23 12 16 7 6 6 10 4 12 12 15 22 23 24 28 25 26 30 31 35 39 48 60 65 68 74 33 30 34 31 34 32 23 27 25 18 20 29 25 18 17 18 18 19
24 25 21 15 15 17 11 13 15 18 18 26 26 25 22 26 28 28 31 32 33 17 19 16 20 32 30 31 28 22 18 21 25 26 27 27 25 22 21 20 19 21 20 18
16 17 21 21 19 15 11 11 18 7 16 17 14 13 15 20 23 24 16 9 4 5 11 10 17 20 22 23 24 25 25 24 24 25 23 20 20 19 18 17 17 15 17 17
16 17 19 14 18 12 6 7 6 16 7 5 7 9 11 8 8 8 9 9 6 8 13 13 19 20 20 23 24 24 21 20 20 19 16 12 14 11 15 21 26 30 17 16
18 23 21 19 19 14 10 8 7 4 7 9 4 5 6 9 11 11 10 9 11 9 8 12 13 16 15 20 20 19 17 18 19 18 19 19 25 33 24 16 16 15 15 15
17 13 16 10 6 1 8 10 9 10 11 11 11 10 8 7 9 10 10 10 9 9 8 8 12 12 16 16 15 12 14 20 20 17 16 15 16 17 21 13 13 16 18 20
24 22 19 19 16 15 15 15 14 10 10 5 10 18 22 18 15 14 11 9 8 10 9 8 8 8 12 14 15 16 20 17 12 10 14 16 16 19 18 18 22 16 16 19
32 21 24 18 17 17 16 15 15 14 13 12 12 13 10 6 1 9 16 2 0 3 10 19 29 26 21 22 28 23 22 21 17 16 19 21 21 21 17 19 20 21 22 19
26 24 23 21 18 18 16 14 14 12 14 12 12 13 12 13 12 7 6 2 1 1 3 2 0 2 5 12 15 17 19 17 17 18 18 19 18 18 19 21 17 19 22 25
23 19 19 17 18 20 18 16 14 13 9 9 6 9 7 9 12 11 5 4 1 1 4 3 3 4 6 6 4 9 12 12 14 15 17 17 20 22 18 23 22 22 19 23
15 16 14 13 8 10 10 13 11 10 9 4 5 6 9 9 5 7 7 8 5 5 6 9 10 10 9 7 10 14 8 9 10 12 16 19 18 21 22 22 22 21 22 22
9 8 7 5 7 6 4 3 3 4 4 2 1 1 5 5 4 6 7 4 5 2 6 10 11 11 14 16 15 16 19 17 19 18 17 16 18 16 13 14 16 14 20 25
12 9 10 9 7 5 7 8 8 7 7 5 6 8 3 4 6 5 6 7 9 9 9 12 14 11 9 12 21 21 16 19 18 17 20 21 16 16 18 17 18 18 19 18
12 10 8 9 9 9 9 9 10 10 12 13 14 15 15 14 14 15 15 14 16 17 17 17 18 17 16 15 16 20 27 31 26 24 24 24 23 24 24 27 27 26 23 24
Wind_Direction
257 246 230 231 227 226 231 227 224 237 240 246 247 250 241 254 239 236 216 219 227 231 231 229 228 220 222 220 219 218 222 224 230 218 217 219 222 227 230 231 236 244 253 261
271 243 227 229 230 227 227 234 236 235 243 248 246 249 246 249 249 239 225 229 234 229 239 231 224 218 220 229 220 214 219 225 229 221 216 218 218 222 230 235 241 245 251 259
285 242 220 224 228 227 229 232 238 232 238 246 239 242 234 236 236 233 229 232 218 218 229 226 219 220 218 226 228 216 223 225 225 226 219 219 215 219 224 233 242 247 251 258
284 279 197 220 231 227 229 229 229 247 245 243 243 239 247 235 236 233 232 227 227 225 238 241 230 221 221 225 225 225 223 228 225 226 225 221 220 221 228 232 237 244 252 259
257 268 223 209 190 212 225 237 243 247 250 243 239 234 236 241 241 240 238 225 223 241 228 228 221 213 222 225 222 227 232 227 222 224 226 224 223 225 229 234 237 242 251 260
252 291 237 220 166 179 194 225 228 236 244 246 226 225 231 231 233 228 238 237 220 211 226 221 223 218 223 226 225 226 227 234 230 224 228 227 226 228 234 237 239 243 249 259
242 245 277 215 238 215 194 231 228 231 232 233 235 227 220 227 238 238 238 241 239 240 244 235 231 223 234 226 230 241 234 242 237 231 225 230 228 229 235 237 238 243 239 263
219 258 228 189 192 205 205 199 203 220 216 217 226 233 234 236 240 247 247 244 241 226 227 233 227 227 224 235 236 244 238 235 240 238 227 230 230 229 235 237 241 243 249 258
196 295 298 7 198 189 215 232 230 235 223 213 220 224 225 231 234 234 240 236 233 239 238 231 234 234 232 243 234 236 235 236 242 234 227 226 231 235 236 238 240 243 257 239
210 224 345 172 140 167 173 194 216 223 227 229 255 250 251 250 250 250 250 247 251 251 253 239 239 239 233 229 232 236 233 230 236 237 231 224 230 233 234 233 233 252 242 246
212 222 284 295 206 166 185 184 186 212 232 229 241 256 260 265 270 265 268 267 262 262 256 256 252 238 235 232 228 223 228 232 237 236 232 226 228 226 225 228 245 233 236 247
200 219 276 273 168 183 187 198 195 198 224 214 240 265 271 286 282 274 279 278 267 257 248 247 237 239 232 223 217 222 230 227 242 231 230 225 223 231 240 231 210 226 240 250
201 191 190 254 216 200 219 242 217 226 236 237 240 270 283 280 282 292 287 287 272 260 249 248 219 221 223 214 224 226 226 224 223 236 237 212 218 244 218 214 222 236 252 266
194 160 131 151 177 200 266 174 206 203 235 240 262 269 275 275 285 283 288 285 282 275 276 257 257 245 197 205 215 218 219 233 214 216 224 228 205 198 216 228 240 250 251 249
170 155 152 158 153 151 202 208 211 220 232 259 263 272 272 268 274 278 277 281 296 309 345 184 154 180 182 213 227 242 188 172 174 170 169 183 189 191 215 228 237 236 238 241
183 170 171 180 188 190 178 207 224 252 292 277 277 278 270 268 266 265 271 278 336 70 109 122 140 138 139 145 153 165 169 188 186 182 186 189 206 227 246 250 220 247 247 242
155 156 166 160 128 134 142 203 223 249 202 207 212 221 206 214 211 151 148 131 125 113 120 124 135 144 147 156 158 173 185 192 193 195 209 218 227 222 236 243 256 266 234 238
141 155 151 154 140 147 144 120 162 186 161 154 173 201 212 206 192 168 162 167 132 161 175 140 155 172 173 172 177 191 203 214 229 242 245 250 255 260 256 240 235 238 260 233
111 114 154 158 177 178 190 220 231 225 234 226 241 251 228 230 228 198 188 193 180 170 185 190 176 179 205 204 188 201 223 231 229 219 222 219 213 210 223 251 263 231 229 225
98 88 92 89 91 88 94 83 88 90 98 157 229 224 233 260 253 252 224 208 217 215 251 258 219 208 232 210 189 185 197 204 230 240 234 233 243 252 255 236 233 226 234 228
86 85 88 93 94 92 90 82 84 84 84 97 87 76 79 82 200 254 230 108 281 237 273 257 242 244 238 253 246 206 219 242 233 247 234 235 243 237 233 227 235 246 240 244
81 91 87 91 93 90 78 76 86 75 69 69 86 82 68 61 67 73 62 93 195 10 31 38 88 217 240 227 225 225 203 201 219 226 231 232 240 240 231 242 243 248 258 266
87 83 83 88 85 81 79 77 89 109 91 100 52 58 66 61 58 48 39 35 32 182 197 195 190 193 193 210 185 207 208 205 224 236 243 249 251 256 263 261 256 273 264 247
75 72 70 66 69 79 67 72 80 98 95 86 55 60 93 52 54 61 82 82 132 177 161 190 205 220 213 209 194 200 181 226 235 262 260 260 268 261 263 268 269 265 263 269
42 39 40 35 21 23 26 116 115 128 173 188 287 256 294 310 337 338 343 357 345 296 216 227 231 223 217 222 222 221 217 225 244 243 262 276 279 268 263 263 256 247 246 251
1 355 344 340 330 303 290 288 272 280 281 283 274 266 167 214 255 257 281 293 301 306 297 288 276 247 229 221 221 231 234 241 221 240 258 270 245 241 273 269 274 267 290 286
346 0 344 333 334 325 310 293 288 284 283 283 272 272 272 265 263 268 271 276 276 272 271 286 290 270 259 258 250 247 243 245 243 246 254 254 261 262 256 262 273 266 263 273
Height
3021 3025 3029 3032 3038 3042 3041 3045 3043 3046 3054 3064 3071 3075 3080 3084 3086 3091 3093 3096 3099 3107 3107 3112 3116 3119 3122 3127 3130 3133 3136 3140 3143 3148 3152 3155 3158 3161 3163 3165 3166 3168 3170 3172
3007 3013 3017 3020 3028 3028 3031 3035 3036 3041 3046 3057 3064 3067 3069 3074 3082 3084 3085 3090 3093 3092 3098 3102 3107 3110 3115 3120 3123 3126 3129 3133 3137 3141 3144 3147 3150 3154 3157 3159 3160 3162 3164 3165
3000 3007 3012 3016 2998 3017 3023 3027 3031 3033 3042 3050 3054 3057 3061 3067 3070 3073 3077 3080 3081 3085 3089 3093 3097 3103 3108 3113 3117 3119 3123 3126 3129 3133 3136 3140 3143 3147 3150 3152 3155 3156 3157 3160
3005 3002 3000 2987 3000 3011 3017 3022 3027 3030 3036 3039 3044 3050 3053 3058 3062 3066 3070 3073 3077 3079 3083 3086 3091 3096 3102 3106 3109 3112 3115 3119 3122 3125 3129 3133 3136 3139 3143 3146 3149 3150 3151 3154
3006 2994 2991 2995 2994 3001 3009 3014 3021 3023 3028 3031 3038 3042 3045 3050 3054 3059 3063 3065 3069 3073 3076 3078 3083 3089 3095 3098 3101 3105 3108 3111 3114 3118 3121 3125 3128 3132 3136 3138 3141 3143 3145 3146
2999 2999 2988 2989 2992 2997 3006 3010 3014 3017 3021 3026 3030 3030 3038 3042 3045 3050 3054 3059 3063 3065 3070 3073 3078 3081 3085 3090 3092 3095 3099 3103 3106 3109 3114 3117 3121 3124 3128 3130 3133 3135 3137 3136
2991 2997 2987 2986 2990 2996 3000 3006 3008 3012 3016 3020 3025 3028 3032 3035 3039 3045 3048 3050 3055 3058 3059 3063 3068 3069 3073 3078 3081 3087 3091 3094 3096 3099 3104 3109 3112 3115 3119 3121 3125 3127 3128 3128
2990 2988 2985 2980 2986 2992 2994 2998 3003 3007 3011 3014 3017 3022 3027 3031 3034 3037 3042 3044 3047 3049 3053 3056 3059 3059 3063 3066 3073 3078 3080 3082 3085 3088 3092 3097 3101 3105 3108 3111 3115 3115 3118 3120
2986 2986 2981 2977 2979 2983 2987 2992 2998 3002 3007 3012 3014 3018 3020 3025 3028 3031 3033 3036 3039 3041 3045 3049 3051 3053 3056 3060 3065 3069 3071 3073 3077 3077 3080 3084 3089 3093 3096 3101 3104 3108 3111 3115
2975 2978 2974 2973 2975 2979 2983 2988 2993 2999 3003 3007 3010 3013 3016 3019 3023 3026 3027 3027 3029 3033 3038 3041 3044 3045 3048 3051 3053 3057 3061 3063 3063 3065 3067 3071 3076 3080 3085 3089 3095 3101 3104 3106
2968 2973 2973 2973 2974 2974 2980 2984 2990 2995 3000 3004 3007 3009 3011 3013 3017 3019 3020 3021 3023 3024 3024 3031 3033 3032 3035 3038 3041 3044 3050 3051 3052 3053 3056 3058 3063 3070 3077 3080 3087 3094 3097 3099
2964 2970 2971 2971 2972 2973 2978 2982 2986 2990 2996 3000 3004 3006 3007 3009 3012 3013 3014 3016 3017 3016 3015 3014 3014 3021 3022 3025 3029 3030 3035 3034 3046 3045 3046 3048 3056 3064 3070 3073 3080 3086 3089 3090
2961 2968 2972 2972 2974 2974 2978 2981 2986 2990 2994 2998 3000 3002 3002 3005 3008 3008 3007 3006 3007 3006 3004 2999 2991 2971 3003 3013 3023 3027 3026 3027 3031 3038 3038 3032 3049 3060 3073 3075 3075 3078 3083 3083
2961 2967 2969 2971 2971 2973 2977 2983 2987 2990 2994 2999 2999 3000 3001 3001 3004 3002 3000 2997 2995 2993 2983 2977 2962 2948 2972 2994 3011 3011 3020 3000 3017 3030 3031 3041 3042 3063 3070 3069 3070 3072 3074 3076
2963 2965 2969 2973 2976 2977 2980 2983 2990 2993 2996 2998 2998 2999 2999 2996 2997 2995 2995 2993 2985 2975 2959 2953 2948 2967 2979 2998 3006 3010 3018 3024 3030 3030 3032 3043 3051 3053 3060 3062 3063 3064 3067 3071
2963 2966 2969 2972 2975 2981 2981 2983 2989 2991 2995 2996 2995 2995 2994 2992 2993 2991 2992 2990 2983 2977 2967 2970 2976 2977 2987 2997 3003 3012 3019 3027 3031 3031 3038 3041 3045 3047 3052 3053 3057 3062 3065 3065
2961 2965 2970 2974 2977 2978 2980 2985 2985 2986 2996 2994 2992 2992 2993 2991 2991 2992 2991 2990 2989 2985 2990 2990 2988 2989 2997 3002 3006 3013 3021 3028 3031 3036 3038 3033 3037 3042 3046 3049 3052 3053 3059 3061
2963 2968 2973 2976 2977 2981 2985 2980 2987 2992 2993 2994 2995 2996 2994 2992 2991 2990 2990 2992 2990 2987 2989 2989 2994 3000 3003 3005 3008 3014 3018 3024 3029 3029 3029 3030 3032 3033 3044 3047 3049 3051 3055 3056
2967 2969 2969 2975 2979 2981 2982 2985 2988 2989 2989 2992 2995 2993 2991 2993 2992 2989 2989 2991 2992 2991 2994 2997 2999 3001 3003 3006 3009 3010 3017 3021 3023 3024 3026 3029 3031 3032 3037 3042 3045 3047 3050 3051
2973 2976 2980 2982 2985 2987 2988 2988 2988 2989 2990 2991 2989 2988 2990 2990 2989 2990 2991 2990 2992 2995 2996 2997 2998 2997 3003 3006 3007 3010 3015 3016 3017 3021 3024 3026 3029 3028 3031 3036 3040 3042 3044 3046
2984 2986 2987 2988 2989 2990 2989 2991 2992 2992 2993 2993 2991 2989 2989 2989 2988 2988 2989 2989 2989 2990 2993 2995 2999 2998 3001 3006 3008 3009 3012 3014 3014 3019 3021 3022 3023 3027 3027 3031 3034 3038 3039 3041
2989 2991 2991 2991 2993 2993 2993 2993 2994 2995 2993 2993 2992 2991 2991 2992 2991 2991 2991 2993 2994 2994 2996 2995 2996 2993 2996 2996 2998 3004 3005 3007 3012 3015 3017 3018 3018 3019 3022 3025 3027 3030 3031 3033
2998 2997 2996 2996 2996 2997 2996 2996 2995 2994 2994 2993 2993 2994 2994 2994 2993 2992 2992 2994 2995 2996 2996 2996 2994 2995 2998 2996 2999 3001 3003 3005 3009 3012 3015 3016 3015 3016 3018 3021 3021 3021 3023 3026
3003 3003 3002 3003 3003 3002 3001 3000 2999 2998 2997 2997 2997 2996 2996 2995 2995 2994 2994 2996 2995 2995 2996 2995 2996 2998 2999 3000 3000 2999 3002 3004 3004 3006 3009 3009 3009 3011 3013 3014 3014 3015 3017 3018
3009 3008 3008 3007 3006 3004 3003 3002 3002 3000 3000 3000 3001 3000 3000 2998 2998 2998 2998 2999 2997 2996 2994 2994 2994 2997 2998 3000 3000 2999 3001 3004 3003 3003 3002 3004 3004 3006 3008 3010 3010 3011 3011 3012
3012 3011 3009 3007 3007 3006 3004 3004 3003 3003 3001 3002 3002 3001 3000 3000 3000 2998 2999 3000 2998 2997 2995 2995 2995 2996 2996 2997 2997 2998 2997 2998 2997 2998 2999 3000 3001 3002 3002 3004 3004 3004 3005 3005
3013 3012 3009 3009 3007 3005 3003 3001 3001 3001 2999 2999 3000 3001 3001 3001 3001 2999 2998 2998 2996 2994 2992 2991 2993 2993 2993 2993 2994 2994 2994 2994 2994 2994 2995 2996 2996 2997 2997 2998 2998 2998 2998 2999